Soldotna, AK

9:05 AM AKDT on June 29, 2017 (GMT -0800)
Soldotna

Weather History for PASX - April, 2014

Change the Weather History Date:

Tuesday, April 15, 2014

  Actual Average Record
Temperature  
Mean Temperature 37 °F -  
Max Temperature 46 °F 41 °F 55 °F (1965)
Min Temperature 28 °F 25 °F -9 °F (1972)
Degree Days  
Heating Degree Days 28    
Moisture  
Dew Point 29 °F    
Average Humidity 75    
Maximum Humidity 93    
Minimum Humidity 50    
Precipitation  
Precipitation 0.02 in - - ()
Sea Level Pressure  
Sea Level Pressure 29.80 in    
Wind  
Wind Speed 1 mph (NE)    
Max Wind Speed 8 mph    
Max Gust Speed -    
Visibility 10 miles    
Events      
Averages and records for this station are not official NWS values.
T = Trace of Precipitation, MM = Missing Value Source: NWS Daily Summary

Daily Weather History Graph

Daily Weather History Graph

Search for Another Location

Airport or City:

Trip Planner

Search our weather history database for the weather conditions in past years. The results will help you decide how hot, cold, wet, or windy it might be!

Date:

Astronomy

Apr. 15, 2014 Rise Set
Actual Time 6:45 AM AKDT 9:24 PM AKDT
Civil Twilight 5:58 AM AKDT 10:12 PM AKDT
Nautical Twilight 4:54 AM AKDT 11:16 PM AKDT
Astronomical Twilight 3:22 AM AKDT 12:53 AM AKDT
Moon 10:30 PM AKDT (4/15) 6:55 AM AKDT (4/15)
Length of Visible Light 16h 13m
Length of Day
14h 39m
Full, 100% of the Moon is Illuminated
Apr 15
Full
Apr 21
Last Quarter
Apr 28
New
May 6
First Quarter
May 14
Full

Hourly Weather History & Observations

Time (AKDT) Temp. Windchill Dew Point Humidity Pressure Visibility Wind Dir Wind Speed Gust Speed Precip Events Conditions
12:16 AM 32.0 °F - 24.8 °F 75% 29.82 in 10.0 mi Calm Calm - N/A   Partly Cloudy
12:36 AM 32.0 °F - 24.8 °F 75% 29.82 in 10.0 mi Calm Calm - N/A   Clear
12:56 AM 30.2 °F - 23.0 °F 75% 29.82 in 10.0 mi Calm Calm - N/A   Clear
1:16 AM 30.2 °F - 21.2 °F 69% 29.82 in 10.0 mi Calm Calm - N/A   Clear
1:36 AM 28.4 °F - 21.2 °F 74% 29.82 in 10.0 mi Calm Calm - N/A   Partly Cloudy
1:56 AM 30.2 °F - 23.0 °F 75% 29.82 in 10.0 mi Calm Calm - N/A   Partly Cloudy
2:16 AM 28.4 °F - 23.0 °F 80% 29.82 in 10.0 mi Calm Calm - N/A   Mostly Cloudy
2:36 AM 28.4 °F - 23.0 °F 80% 29.82 in 10.0 mi Calm Calm - N/A   Overcast
2:56 AM 28.4 °F - 23.0 °F 80% 29.81 in 10.0 mi Calm Calm - N/A   Mostly Cloudy
3:16 AM 28.4 °F - 21.2 °F 74% 29.81 in 10.0 mi Calm Calm - N/A   Clear
3:36 AM 28.4 °F - 21.2 °F 74% 29.81 in 10.0 mi Calm Calm - N/A   Partly Cloudy
3:56 AM 28.4 °F - 21.2 °F 74% 29.81 in 10.0 mi Calm Calm - N/A   Mostly Cloudy
4:16 AM 28.4 °F - 23.0 °F 80% 29.81 in 10.0 mi Calm Calm - N/A   Overcast
4:36 AM 28.4 °F - 23.0 °F 80% 29.80 in 10.0 mi Calm Calm - N/A   Overcast
4:56 AM 28.4 °F - 23.0 °F 80% 29.80 in 10.0 mi Calm Calm - N/A   Overcast
5:16 AM 28.4 °F - 23.0 °F 80% 29.80 in 10.0 mi Calm Calm - N/A   Overcast
5:36 AM 28.4 °F 24.6 °F 21.2 °F 74% 29.80 in 10.0 mi East 3.5 mph - N/A   Overcast
5:56 AM 28.4 °F 24.6 °F 24.8 °F 86% 29.80 in 10.0 mi ENE 3.5 mph - N/A   Overcast
6:16 AM 28.4 °F - 23.0 °F 80% 29.80 in 10.0 mi Calm Calm - N/A   Overcast
6:36 AM 28.4 °F - 24.8 °F 86% 29.80 in 10.0 mi Calm Calm - N/A   Overcast
6:56 AM 30.2 °F - 24.8 °F 80% 29.80 in 10.0 mi Calm Calm - N/A   Overcast
7:16 AM 28.4 °F - 24.8 °F 86% 29.80 in 10.0 mi Calm Calm - N/A   Overcast
7:36 AM 30.2 °F - 24.8 °F 80% 29.80 in 10.0 mi Calm Calm - N/A   Overcast
7:56 AM 30.2 °F - 24.8 °F 80% 29.80 in 10.0 mi Calm Calm - N/A   Overcast
8:16 AM 30.2 °F - 24.8 °F 80% 29.80 in 10.0 mi Calm Calm - N/A   Overcast
8:56 AM 32.0 °F - 24.8 °F 75% 29.80 in 10.0 mi Calm Calm - N/A   Overcast
9:16 AM 33.8 °F - 24.8 °F 70% 29.80 in 10.0 mi Calm Calm - N/A   Overcast
9:56 AM 37.4 °F 34.9 °F 26.6 °F 65% 29.79 in 10.0 mi East 3.5 mph - N/A   Overcast
10:16 AM 37.4 °F - 26.6 °F 65% 29.79 in 10.0 mi Calm Calm - N/A   Overcast
10:36 AM 39.2 °F 37.0 °F 26.6 °F 61% 29.79 in 10.0 mi NE 3.5 mph - N/A   Scattered Clouds
10:56 AM 41.0 °F 39.0 °F 26.6 °F 57% 29.79 in 10.0 mi NNE 3.5 mph - N/A   Partly Cloudy
11:16 AM 42.8 °F 41.1 °F 28.4 °F 57% 29.78 in 10.0 mi East 3.5 mph - N/A   Scattered Clouds
11:36 AM 44.6 °F 43.1 °F 28.4 °F 53% 29.78 in 10.0 mi ENE 3.5 mph - N/A   Scattered Clouds
11:56 AM 42.8 °F 40.1 °F 28.4 °F 57% 29.78 in 10.0 mi NE 4.6 mph - N/A   Mostly Cloudy
12:16 PM 44.6 °F - 30.2 °F 57% 29.78 in 10.0 mi Calm Calm - N/A   Overcast
12:36 PM 44.6 °F - 30.2 °F 57% 29.77 in 10.0 mi Calm Calm - N/A   Overcast
12:56 PM 44.6 °F 42.2 °F 30.2 °F 57% 29.77 in 10.0 mi NNW 4.6 mph - N/A   Mostly Cloudy
1:16 PM 46.4 °F 44.3 °F 28.4 °F 50% 29.77 in 10.0 mi East 4.6 mph - N/A   Mostly Cloudy
1:36 PM 46.4 °F - 28.4 °F 50% 29.77 in 10.0 mi Calm Calm - N/A   Overcast
1:56 PM 46.4 °F 42.9 °F 30.2 °F 53% 29.77 in 10.0 mi East 6.9 mph - N/A   Overcast
2:16 PM 44.6 °F - 32.0 °F 61% 29.78 in 9.0 mi Calm Calm - N/A   Overcast
2:36 PM 44.6 °F 42.2 °F 32.0 °F 61% 29.78 in 10.0 mi ENE 4.6 mph - N/A   Overcast
2:56 PM 42.8 °F 39.3 °F 33.8 °F 70% 29.79 in 10.0 mi SSE 5.8 mph - N/A   Overcast
3:16 PM 42.8 °F - 35.6 °F 76% 29.79 in 10.0 mi Calm Calm - 0.01 in   Overcast
3:36 PM 42.8 °F - 35.6 °F 76% 29.79 in 10.0 mi Calm Calm - 0.01 in   Overcast
3:56 PM 42.8 °F 41.1 °F 35.6 °F 76% 29.79 in 10.0 mi SSE 3.5 mph - 0.02 in   Overcast
4:16 PM 42.8 °F - 35.6 °F 76% 29.79 in 10.0 mi Calm Calm - N/A   Overcast
4:36 PM 42.8 °F 41.1 °F 35.6 °F 76% 29.79 in 10.0 mi SSW 3.5 mph - N/A   Overcast
4:56 PM 42.8 °F - 35.6 °F 76% 29.79 in 10.0 mi Calm Calm - N/A   Overcast
5:16 PM 42.8 °F 38.0 °F 35.6 °F 76% 29.79 in 10.0 mi West 8.1 mph - N/A   Overcast
5:36 PM 41.0 °F 37.1 °F 35.6 °F 81% 29.79 in 10.0 mi West 5.8 mph - N/A   Overcast
5:56 PM 41.0 °F 38.0 °F 35.6 °F 81% 29.79 in 10.0 mi WNW 4.6 mph - N/A   Overcast
6:16 PM 42.8 °F 39.3 °F 35.6 °F 76% 29.79 in 10.0 mi West 5.8 mph - N/A   Overcast
6:36 PM 42.8 °F 41.1 °F 35.6 °F 76% 29.79 in 10.0 mi WNW 3.5 mph - N/A   Overcast
6:56 PM 42.8 °F - 37.4 °F 81% 29.79 in 10.0 mi Calm Calm - N/A   Overcast
7:16 PM 42.8 °F 41.1 °F 37.4 °F 81% 29.79 in 10.0 mi WNW 3.5 mph - N/A   Overcast
7:36 PM 42.8 °F - 35.6 °F 76% 29.79 in 10.0 mi Calm Calm - N/A   Overcast
7:56 PM 41.0 °F 38.0 °F 35.6 °F 81% 29.79 in 10.0 mi NNE 4.6 mph - N/A   Overcast
8:36 PM 41.0 °F - 37.4 °F 87% 29.79 in 7.0 mi Calm Calm - N/A   Mostly Cloudy
8:56 PM 39.2 °F 37.0 °F 37.4 °F 93% 29.79 in 10.0 mi North 3.5 mph - N/A   Overcast
9:16 PM 39.2 °F 37.0 °F 35.6 °F 87% 29.79 in 10.0 mi North 3.5 mph - N/A   Overcast
9:36 PM 39.2 °F 37.0 °F 35.6 °F 87% 29.79 in 10.0 mi NE 3.5 mph - N/A   Overcast
9:56 PM 39.2 °F - 35.6 °F 87% 29.79 in 10.0 mi Calm Calm - N/A   Overcast
10:16 PM 37.4 °F 34.9 °F 35.6 °F 93% 29.80 in 10.0 mi NNE 3.5 mph - N/A   Overcast
10:36 PM 37.4 °F - 35.6 °F 93% 29.80 in 10.0 mi Calm Calm - N/A   Overcast
10:56 PM 37.4 °F - 35.6 °F 93% 29.80 in 10.0 mi Calm Calm - N/A   Overcast
11:16 PM 37.4 °F - 35.6 °F 93% 29.80 in 10.0 mi Calm Calm - N/A   Overcast
11:36 PM 37.4 °F - 33.8 °F 87% 29.80 in 10.0 mi Calm Calm - N/A   Overcast
11:56 PM 35.6 °F - 33.8 °F 93% 29.80 in 10.0 mi Calm Calm - N/A   Overcast